{"data":{"norad_id":67364,"intl_designator":"2026-004B","name":"TWILIGHT-1 OBJECT B","alt_names":[],"object_type":"PAYLOAD","status":"ACTIVE","operator":null,"country":"TBD","launch_date":"2026-01-11","launch_site_code":"AFWTR","launch_vehicle":null,"mission":null,"orbit_class":"UNKNOWN","rcs_meters":null,"size_class":null,"mass_kg":null,"dimensions":null,"purposes":["earth_obs"],"wikipedia_slug":null,"has_3d_model":false,"image_url":null,"decayed_at":null,"tle_current":{"epoch":"2026-09-19T22:01:28.636320Z","epoch_age_seconds":65044,"freshness":"FRESH","line1":"1 67364U 26004B   26262.91769255  .00001034  00000+0  11867-3 0  9993","line2":"2 67364  97.8136 260.0446 0008727 168.0532 192.0893 14.87968642 37370","mean_motion":14.87968642,"eccentricity":0.0008727,"inclination_deg":97.8136,"raan_deg":260.0446,"arg_perigee_deg":168.0532,"mean_anomaly_deg":192.0893,"bstar":0.00011867,"rev_number":3737,"period_min":96.776233003437,"perigee_km":598.1897670957,"apogee_km":610.3768835315,"semimajor_km":6982.4203253136,"source":"CELESTRAK","updated_at":"2026-09-20T09:00:34.881424Z"}}}